TimePST,TemperatureF,Dew PointF,Humidity,Sea Level PressureIn,VisibilityMPH,Wind Direction,Wind SpeedMPH,Gust SpeedMPH,PrecipitationIn,Events,Conditions,WindDirDegrees,DateUTC
12:07 AM,51.8,50.0,94,30.16,0.2,ENE,4.6,-,N/A,Fog,Fog,60,2012-12-05 08:07:00
12:14 AM,51.8,51.8,100,30.17,0.2,NNE,3.5,-,N/A,Fog,Fog,20,2012-12-05 08:14:00
12:53 AM,52.0,51.1,97,30.16,0.2,Calm,Calm,-,N/A,Fog,Fog,0,2012-12-05 08:53:00
1:53 AM,53.1,53.1,100,30.16,0.2,Calm,Calm,-,N/A,Fog,Fog,0,2012-12-05 09:53:00
2:53 AM,53.1,52.0,96,30.14,0.2,Calm,Calm,-,N/A,Fog,Fog,0,2012-12-05 10:53:00
3:53 AM,52.0,52.0,100,30.12,0.2,Calm,Calm,-,N/A,Fog,Fog,0,2012-12-05 11:53:00
4:53 AM,50.0,50.0,100,30.12,0.2,Calm,Calm,-,N/A,Fog,Fog,0,2012-12-05 12:53:00
6:53 AM,48.0,46.9,96,30.14,0.2,Calm,Calm,-,N/A,Fog,Fog,0,2012-12-05 14:53:00
7:36 AM,48.2,46.4,93,30.15,0.2,Calm,Calm,-,N/A,Fog,Fog,0,2012-12-05 15:36:00
7:46 AM,48.2,46.4,93,30.14,0.2,Calm,Calm,-,N/A,Fog,Fog,0,2012-12-05 15:46:00
7:53 AM,48.9,48.0,97,30.14,0.2,East,3.5,-,N/A,Fog,Fog,90,2012-12-05 15:53:00
8:24 AM,50.0,48.2,94,30.15,0.8,Calm,Calm,-,N/A,,Mostly Cloudy,0,2012-12-05 16:24:00
8:31 AM,50.0,48.2,94,30.15,0.8,Calm,Calm,-,N/A,,Mostly Cloudy,0,2012-12-05 16:31:00
8:53 AM,51.1,50.0,96,30.15,2.0,Calm,Calm,-,N/A,,Mostly Cloudy,0,2012-12-05 16:53:00
9:28 AM,55.4,51.8,88,30.15,3.0,Calm,Calm,-,N/A,,Mostly Cloudy,0,2012-12-05 17:28:00
9:53 AM,55.9,52.0,87,30.14,4.0,Calm,Calm,-,N/A,,Mostly Cloudy,0,2012-12-05 17:53:00
10:53 AM,62.1,51.1,67,30.12,10.0,Calm,Calm,-,N/A,,Mostly Cloudy,0,2012-12-05 18:53:00
11:53 AM,66.9,48.0,51,30.08,10.0,Calm,Calm,-,N/A,,Mostly Cloudy,0,2012-12-05 19:53:00
12:53 PM,70.0,53.1,55,30.05,10.0,Variable,3.5,-,N/A,,Mostly Cloudy,0,2012-12-05 20:53:00
1:53 PM,73.0,45.0,37,30.02,10.0,West,6.9,-,N/A,,Mostly Cloudy,280,2012-12-05 21:53:00
2:53 PM,71.1,48.0,44,30.01,10.0,West,9.2,-,N/A,,Mostly Cloudy,280,2012-12-05 22:53:00
4:53 PM,62.1,53.1,72,30.01,7.0,West,9.2,-,N/A,,Mostly Cloudy,270,2012-12-06 00:53:00
5:53 PM,60.1,54.0,80,30.03,5.0,West,6.9,-,N/A,,Haze,280,2012-12-06 01:53:00
6:53 PM,57.9,54.0,87,30.03,5.0,WNW,4.6,-,N/A,,Clear,290,2012-12-06 02:53:00
7:53 PM,57.0,54.0,89,30.04,5.0,West,3.5,-,N/A,,Clear,270,2012-12-06 03:53:00
8:53 PM,55.0,52.0,89,30.05,3.0,Calm,Calm,-,N/A,,Clear,0,2012-12-06 04:53:00
9:29 PM,53.6,51.8,94,30.05,2.5,Calm,Calm,-,N/A,,Partly Cloudy,0,2012-12-06 05:29:00
9:42 PM,53.6,51.8,94,30.06,2.5,Calm,Calm,-,N/A,,Mostly Cloudy,0,2012-12-06 05:42:00
9:53 PM,54.0,53.1,97,30.05,2.5,Calm,Calm,-,N/A,,Overcast,0,2012-12-06 05:53:00
10:53 PM,57.0,55.0,93,30.05,2.5,WNW,3.5,-,N/A,,Overcast,290,2012-12-06 06:53:00
11:53 PM,57.0,54.0,89,30.04,2.5,Calm,Calm,-,N/A,,Overcast,0,2012-12-06 07:53:00